FW3182 Weather Reports


Display with metric or nautical units.
time (UTC)temp
F
wind
direction
speed
MPH
gust
MPH
rain 1hr
in
rain 24hr
in
rain mn
in
humidity
%
barometer
mb
20260906143203 89 199 0.0 2.0 0.00 0.00 0.00 60 1012.2
20260906142704 89 163 0.0 0.0 0.00 0.00 0.00 61 1012.2
20260906142204 88 56 0.0 0.0 0.00 0.00 0.00 62 1012.3
20260906141204 88 56 0.0 0.0 0.00 0.00 0.00 65 1012.3
20260906140704 87 56 0.0 0.0 0.00 0.00 0.00 66 1012.2
20260906140204 85 47 0.0 0.0 0.00 0.00 0.00 69 1012.2
20260906135703 84 47 0.0 0.0 0.00 0.00 0.00 71 1012.2
20260906135204 84 47 0.0 0.0 0.00 0.00 0.00 71 1012.2
20260906133704 83 99 0.0 0.0 0.00 0.00 0.00 72 1012.2
20260906133203 82 99 0.0 0.0 0.00 0.00 0.00 73 1012.1
20260906132704 81 99 0.0 0.0 0.00 0.00 0.00 73 1012.1
20260906132203 80 99 0.0 0.0 0.00 0.00 0.00 75 1012.1
20260906131703 80 99 0.0 0.0 0.00 0.00 0.00 77 1012.1
20260906131204 79 99 0.0 0.0 0.00 0.00 0.00 76 1012.1
20260906130203 77 99 0.0 0.0 0.00 0.00 0.00 79 1011.9
20260906125704 76 99 0.0 0.0 0.00 0.00 0.00 80 1011.7
20260906125204 75 99 0.0 0.0 0.00 0.00 0.00 82 1011.8
20260906124203 75 99 0.0 0.0 0.00 0.00 0.00 81 1011.8
20260906123704 74 99 0.0 0.0 0.00 0.00 0.00 82 1011.6
20260906123204 74 99 0.0 0.0 0.00 0.00 0.00 82 1011.6
20260906122203 74 99 0.0 0.0 0.00 0.00 0.00 81 1011.6
20260906121204 74 99 0.0 0.0 0.00 0.00 0.00 81 1011.5
20260906120203 74 99 0.0 0.0 0.00 0.00 0.00 81 1011.4
20260906115704 74 99 0.0 0.0 0.00 0.00 0.00 81 1011.3
20260906114703 75 204 0.0 0.0 0.00 0.00 0.00 80 1011.2
20260906114204 75 204 0.0 0.0 0.00 0.00 0.00 79 1011.1
20260906113704 75 204 0.0 0.0 0.00 0.00 0.00 79 1011.0
20260906113204 74 204 0.0 0.0 0.00 0.00 0.00 79 1011.0
20260906112703 74 204 0.0 0.0 0.00 0.00 0.00 80 1011.0
20260906112203 73 204 0.0 0.0 0.00 0.00 0.00 81 1011.0
20260906111704 73 204 0.0 0.0 0.00 0.00 0.00 82 1011.0
20260906111203 73 204 0.0 0.0 0.00 0.00 0.00 83 1011.0
20260906110204 73 204 0.0 0.0 0.00 0.00 0.00 82 1011.0
20260906105703 74 204 0.0 0.0 0.00 0.00 0.00 81 1011.0
20260906105203 74 204 0.0 0.0 0.00 0.00 0.00 81 1010.9
20260906104704 74 204 0.0 0.0 0.00 0.00 0.00 81 1010.8
20260906104204 74 204 0.0 0.0 0.00 0.00 0.00 80 1010.9
20260906103703 75 204 0.0 0.0 0.00 0.00 0.00 80 1010.8
20260906102704 75 232 0.0 0.0 0.00 0.00 0.00 79 1010.8
20260906102203 75 232 0.0 0.0 0.00 0.00 0.00 78 1010.7
20260906101704 75 232 0.0 0.0 0.00 0.00 0.00 78 1010.7
20260906100703 75 232 0.0 0.0 0.00 0.00 0.00 78 1010.7
20260906100203 75 232 0.0 0.0 0.00 0.00 0.00 78 1010.7
20260906095703 75 232 0.0 0.0 0.00 0.00 0.00 78 1010.7
20260906094704 74 232 0.0 0.0 0.00 0.00 0.00 80 1010.7
20260906094204 74 232 0.0 0.0 0.00 0.00 0.00 80 1010.7
20260906093704 74 232 0.0 0.0 0.00 0.00 0.00 80 1010.7
20260906093203 74 232 0.0 0.0 0.00 0.00 0.00 79 1010.7
20260906092704 75 232 0.0 0.0 0.00 0.00 0.00 79 1010.7
20260906092204 75 232 0.0 0.0 0.00 0.00 0.00 78 1010.7
20260906090704 76 232 0.0 0.0 0.00 0.00 0.00 77 1010.5
20260906090203 75 232 0.0 0.0 0.00 0.00 0.00 77 1010.5
20260906085703 75 232 0.0 0.0 0.00 0.00 0.00 77 1010.6
20260906085204 76 232 0.0 0.0 0.00 0.00 0.00 78 1010.6
20260906084704 76 232 0.0 0.0 0.00 0.00 0.00 76 1010.5
20260906083704 76 232 0.0 0.0 0.00 0.00 0.00 76 1010.5
20260906083203 76 232 0.0 0.0 0.00 0.00 0.00 76 1010.5
20260906082704 76 232 0.0 0.0 0.00 0.00 0.00 76 1010.6
20260906082204 77 232 0.0 0.0 0.00 0.00 0.00 77 1010.6
20260906081704 77 232 0.0 0.0 0.00 0.00 0.00 75 1010.5
20260906081203 77 232 0.0 0.0 0.00 0.00 0.00 76 1010.5
20260906080204 77 232 0.0 0.0 0.00 0.00 0.00 74 1010.5
20260906075703 77 232 0.0 0.0 0.00 0.00 0.00 73 1010.5
20260906075204 78 232 0.0 0.0 0.00 0.00 0.00 73 1010.5
20260906074203 78 232 0.0 0.0 0.00 0.00 0.00 72 1010.5
20260906073704 78 232 0.0 0.0 0.00 0.00 0.00 73 1010.5
20260906072703 78 232 0.0 0.0 0.00 0.00 0.00 72 1010.6
20260906072204 78 232 0.0 0.0 0.00 0.00 0.00 73 1010.6
20260906071703 78 232 0.0 0.0 0.00 0.00 0.00 72 1010.6
20260906071204 78 232 0.0 0.0 0.00 0.00 0.00 72 1010.5
20260906070703 78 232 0.0 0.0 0.00 0.00 0.00 71 1010.5
20260906070204 78 232 0.0 0.0 0.00 0.00 0.00 71 1010.5
20260906065704 78 232 0.0 0.0 0.00 0.00 0.00 71 1010.5
20260906065204 78 232 0.0 0.0 0.00 0.00 0.00 71 1010.6
20260906064703 78 232 0.0 0.0 0.00 0.00 0.00 71 1010.6
20260906064204 78 232 0.0 0.0 0.00 0.00 0.00 71 1010.6
20260906063703 78 232 0.0 0.0 0.00 0.00 0.00 71 1010.6
20260906063203 78 232 0.0 0.0 0.00 0.00 0.00 71 1010.7
20260906062704 78 232 0.0 0.0 0.00 0.00 0.00 72 1010.6
20260906062203 78 232 0.0 0.0 0.00 0.00 0.00 74 1010.7
20260906061704 78 232 0.0 0.0 0.00 0.00 0.00 73 1010.6
20260906060704 79 232 0.0 0.0 0.00 0.00 0.00 72 1010.6
20260906060204 79 232 0.0 0.0 0.00 0.00 0.00 71 1010.5
20260906055704 79 232 0.0 0.0 0.00 0.00 0.00 70 1010.6
20260906054703 79 232 0.0 0.0 0.00 0.00 0.00 70 1010.5
20260906054204 79 232 0.0 0.0 0.00 0.00 0.00 71 1010.7
20260906053704 79 232 0.0 0.0 0.00 0.00 0.00 70 1010.6
20260906053204 79 232 0.0 0.0 0.00 0.00 0.00 71 1010.5
20260906052703 79 232 0.0 0.0 0.00 0.00 0.00 71 1010.4
20260906052204 80 232 0.0 0.0 0.00 0.00 0.00 72 1010.5
20260906051703 79 232 0.0 0.0 0.00 0.00 0.00 71 1010.5
20260906051204 79 232 0.0 0.0 0.00 0.00 0.00 72 1010.5
20260906050704 80 232 0.0 0.0 0.00 0.00 0.00 71 1010.4
20260906050204 80 76 0.0 0.0 0.00 0.00 0.00 70 1010.4
20260906045703 81 130 0.0 0.0 0.00 0.00 0.00 71 1010.4
20260906045204 81 130 0.0 0.0 0.00 0.00 0.00 68 1010.4
20260906044704 81 130 0.0 0.0 0.00 0.00 0.00 67 1010.5
20260906044203 82 130 0.0 0.0 0.00 0.00 0.00 67 1010.4
20260906043704 81 60 0.0 0.0 0.00 0.00 0.00 66 1010.4
20260906043204 81 70 0.0 0.0 0.00 0.00 0.00 68 1010.5
20260906042704 81 75 0.0 0.0 0.00 0.00 0.00 68 1010.5
20260906041704 82 75 0.0 0.0 0.00 0.00 0.00 67 1010.3
20260906041204 82 75 0.0 0.0 0.00 0.00 0.00 66 1010.4
20260906040703 83 75 0.0 0.0 0.00 0.00 0.00 65 1010.4
20260906035703 83 75 0.0 0.0 0.00 0.00 0.00 64 1010.3
20260906035204 84 75 0.0 0.0 0.00 0.00 0.00 63 1010.3
20260906034703 84 75 0.0 0.0 0.00 0.00 0.00 62 1010.3
20260906034204 85 47 0.0 0.0 0.00 0.00 0.00 62 1010.3
20260906032704 85 46 0.0 0.0 0.00 0.00 0.00 61 1010.2
20260906032204 85 53 0.0 0.0 0.00 0.00 0.00 61 1010.3
20260906031703 85 64 0.0 0.0 0.00 0.00 0.00 61 1010.2
20260906031204 84 64 0.0 0.0 0.00 0.00 0.00 61 1010.1
20260906030704 85 64 0.0 0.0 0.00 0.00 0.00 61 1010.2
20260906030203 85 64 0.0 0.0 0.00 0.00 0.00 61 1010.1
20260906025704 86 64 0.0 0.0 0.00 0.00 0.00 59 1010.2
20260906025203 86 64 0.0 0.0 0.00 0.00 0.00 59 1010.0
20260906024704 86 64 0.0 1.0 0.00 0.00 0.00 58 1009.9
20260906024203 87 64 0.0 1.0 0.00 0.00 0.00 58 1009.9
20260906023704 87 64 0.0 2.0 0.00 0.00 0.00 58 1009.9
20260906023203 87 45 1.0 3.0 0.00 0.00 0.00 58 1009.8
20260906021703 87 59 1.0 3.0 0.00 0.00 0.00 60 1009.8
20260906021204 87 23 0.0 2.0 0.00 0.00 0.00 60 1009.6
20260906020703 87 23 0.0 0.0 0.00 0.00 0.00 59 1009.5
20260906020204 87 23 0.0 0.0 0.00 0.00 0.00 59 1009.5
20260906015703 88 23 0.0 3.0 0.00 0.00 0.00 58 1009.5
20260906015204 88 8 0.0 0.0 0.00 0.00 0.00 56 1009.4
20260906014703 89 55 0.0 3.0 0.00 0.00 0.00 55 1009.3
20260906014204 90 73 1.0 3.0 0.00 0.00 0.00 54 1009.3
20260906013204 90 68 2.0 3.0 0.00 0.00 0.00 52 1009.1
20260906012704 90 11 0.0 0.0 0.00 0.00 0.00 51 1009.0
20260906012204 90 11 0.0 0.0 0.00 0.00 0.00 51 1008.9
20260906011703 90 11 0.0 0.0 0.00 0.00 0.00 51 1008.9
20260906011204 90 11 0.0 0.0 0.00 0.00 0.00 51 1008.8
20260906005704 91 11 0.0 0.0 0.00 0.00 0.00 50 1008.7
20260906004704 91 11 0.0 0.0 0.00 0.00 0.00 49 1008.6
20260906003703 92 11 0.0 0.0 0.00 0.00 0.00 48 1008.7
20260906003203 93 11 0.0 0.0 0.00 0.00 0.00 48 1008.6
20260906002704 94 11 0.0 0.0 0.00 0.00 0.00 47 1008.6
20260906002203 95 11 0.0 0.0 0.00 0.00 0.00 46 1008.6
20260906001704 95 11 0.0 0.0 0.00 0.00 0.00 45 1008.5
20260906001204 97 11 0.0 0.0 0.00 0.00 0.00 44 1008.6
20260906000703 97 11 0.0 0.0 0.00 0.00 0.00 44 1008.6
20260906000204 98 11 0.0 0.0 0.00 0.00 0.00 42 1008.6
20260905235703 99 11 0.0 0.0 0.00 0.00 0.00 41 1008.6
20260905235204 100 11 0.0 1.0 0.00 0.00 0.00 40 1008.6
20260905234704 100 55 0.0 1.0 0.00 0.00 0.00 40 1008.6
20260905234203 101 46 0.0 2.0 0.00 0.00 0.00 40 1008.6
20260905233704 102 197 0.0 1.0 0.00 0.00 0.00 38 1008.6
20260905233204 102 238 0.0 1.0 0.00 0.00 0.00 39 1008.6
20260905232703 101 238 0.0 2.0 0.00 0.00 0.00 39 1008.6
20260905231704 102 347 0.0 1.0 0.00 0.00 0.00 37 1008.7
20260905231203 102 336 0.0 1.0 0.00 0.00 0.00 37 1008.7
20260905230704 102 56 0.0 0.0 0.00 0.00 0.00 38 1008.7
20260905230203 102 240 1.0 2.0 0.00 0.00 0.00 36 1008.6
20260905225204 102 42 0.0 2.0 0.00 0.00 0.00 38 1008.5
20260905224704 100 43 0.0 1.0 0.00 0.00 0.00 38 1008.4
20260905224204 100 54 1.0 3.0 0.00 0.00 0.00 38 1008.4
20260905223703 101 65 1.0 2.0 0.00 0.00 0.00 37 1008.4
20260905223204 101 38 1.0 2.0 0.00 0.00 0.00 37 1008.4
20260905222704 101 50 2.0 6.0 0.00 0.00 0.00 37 1008.4
20260905222204 102 340 0.0 1.0 0.00 0.00 0.00 36 1008.4
20260905221704 102 63 0.0 2.0 0.00 0.00 0.00 37 1008.5
20260905221203 103 47 1.0 3.0 0.00 0.00 0.00 36 1008.5
20260905220703 103 58 0.0 3.0 0.00 0.00 0.00 37 1008.6
20260905220204 102 247 1.0 2.0 0.00 0.00 0.00 37 1008.6
20260905215704 101 212 1.0 2.0 0.00 0.00 0.00 39 1008.6
20260905215204 100 59 2.0 5.0 0.00 0.00 0.00 39 1008.8
20260905214704 101 6 2.0 5.0 0.00 0.00 0.00 39 1008.8
20260905213704 102 56 1.0 3.0 0.00 0.00 0.00 38 1008.9
20260905213204 102 260 0.0 2.0 0.00 0.00 0.00 40 1008.9
20260905212204 100 168 1.0 3.0 0.00 0.00 0.00 40 1009.0
20260905211704 99 163 1.0 2.0 0.00 0.00 0.00 40 1009.0
20260905211203 99 214 0.0 2.0 0.00 0.00 0.00 40 1009.2
20260905210704 99 253 0.0 2.0 0.00 0.00 0.00 40 1009.3
20260905210204 100 247 0.0 1.0 0.00 0.00 0.00 40 1009.3
20260905205704 100 257 0.0 1.0 0.00 0.00 0.00 41 1009.4
20260905205203 100 263 1.0 3.0 0.00 0.00 0.00 40 1009.5
20260905204704 99 275 1.0 6.0 0.00 0.00 0.00 40 1009.6
20260905204204 99 322 1.0 5.0 0.00 0.00 0.00 42 1009.7
20260905203704 99 0 1.0 6.0 0.00 0.00 0.00 41 1009.7
20260905203203 99 33 1.0 2.0 0.00 0.00 0.00 41 1009.8
20260905201704 99 57 1.0 7.0 0.00 0.00 0.00 41 1010.0
20260905201204 100 20 2.0 7.0 0.00 0.00 0.00 40 1010.1
20260905200204 101 297 0.0 3.0 0.00 0.00 0.00 41 1010.1
20260905195704 100 203 1.0 5.0 0.00 0.00 0.00 43 1010.2
20260905195204 99 83 3.0 7.0 0.00 0.00 0.00 42 1010.2
20260905194703 100 350 1.0 3.0 0.00 0.00 0.00 41 1010.4
20260905194204 100 251 2.0 3.0 0.00 0.00 0.00 43 1010.3
20260905193704 99 333 1.0 3.0 0.00 0.00 0.00 43 1010.4
20260905193203 99 286 3.0 8.0 0.00 0.00 0.00 43 1010.4
20260905192704 99 293 0.0 3.0 0.00 0.00 0.00 43 1010.6
20260905192204 99 294 1.0 3.0 0.00 0.00 0.00 45 1010.8
20260905191703 98 101 1.0 2.0 0.00 0.00 0.00 46 1010.8
20260905191204 97 116 0.0 1.0 0.00 0.00 0.00 47 1010.8
20260905190204 96 201 0.0 3.0 0.00 0.00 0.00 46 1011.0
20260905185703 97 251 0.0 1.0 0.00 0.00 0.00 45 1011.1
20260905185203 96 325 1.0 3.0 0.00 0.00 0.00 49 1011.2
20260905184704 96 51 0.0 5.0 0.00 0.00 0.00 49 1011.2
20260905183703 96 291 1.0 2.0 0.00 0.00 0.00 48 1011.4
20260905182704 96 322 1.0 12.0 0.00 0.00 0.00 50 1011.5
20260905182204 95 74 0.0 1.0 0.00 0.00 0.00 50 1011.7
20260905181704 95 64 1.0 2.0 0.00 0.00 0.00 49 1011.7
20260905181204 96 255 3.0 6.0 0.00 0.00 0.00 47 1011.7
20260905180704 97 263 1.0 6.0 0.00 0.00 0.00 48 1011.8
20260905175704 97 322 2.0 3.0 0.00 0.00 0.00 50 1011.9
20260905175204 96 249 1.0 7.0 0.00 0.00 0.00 49 1012.0
20260905174703 96 250 0.0 3.0 0.00 0.00 0.00 47 1012.0
20260905174203 96 42 2.0 3.0 0.00 0.00 0.00 47 1012.2
20260905173704 97 85 2.0 3.0 0.00 0.00 0.00 48 1012.3
20260905173204 96 205 1.0 6.0 0.00 0.00 0.00 50 1012.1
20260905172704 97 270 2.0 7.0 0.00 0.00 0.00 49 1012.2
20260905171204 95 49 2.0 3.0 0.00 0.00 0.00 51 1012.5
20260905170703 95 82 2.0 7.0 0.00 0.00 0.00 51 1012.5
20260905170204 96 43 3.0 6.0 0.00 0.00 0.00 51 1012.5
20260905165703 96 288 1.0 5.0 0.00 0.00 0.00 51 1012.6
20260905165203 95 311 1.0 5.0 0.00 0.00 0.00 51 1012.6
20260905164704 95 280 2.0 3.0 0.00 0.00 0.00 52 1012.6
20260905164204 94 307 2.0 7.0 0.00 0.00 0.00 52 1012.6
20260905163703 94 54 2.0 5.0 0.00 0.00 0.00 52 1012.7
20260905163203 94 46 2.0 7.0 0.00 0.00 0.00 54 1012.9
20260905162704 94 268 2.0 3.0 0.00 0.00 0.00 55 1012.8
20260905162204 93 274 2.0 6.0 0.00 0.00 0.00 54 1012.8
20260905160704 92 270 2.0 6.0 0.00 0.00 0.00 55 1013.0
20260905155703 92 265 2.0 7.0 0.00 0.00 0.00 57 1012.9
20260905155204 92 264 3.0 6.0 0.00 0.00 0.00 57 1013.0
20260905154203 91 273 4.0 7.0 0.00 0.00 0.00 58 1012.9
20260905153204 90 296 1.0 3.0 0.00 0.00 0.00 60 1012.9
20260905152704 90 240 2.0 7.0 0.00 0.00 0.00 59 1012.9
20260905152204 90 287 2.0 6.0 0.00 0.00 0.00 60 1012.8
20260905151704 90 278 2.0 9.0 0.00 0.00 0.00 60 1012.8
20260905151203 90 248 3.0 7.0 0.00 0.00 0.00 62 1012.7
20260905150704 89 263 0.0 2.0 0.00 0.00 0.00 63 1012.7
20260905150203 89 215 2.0 5.0 0.00 0.00 0.00 62 1012.7
20260905145703 88 249 3.0 6.0 0.00 0.00 0.00 63 1012.7
20260905145204 88 197 3.0 6.0 0.00 0.00 0.00 64 1012.6
20260905144704 87 167 2.0 6.0 0.00 0.00 0.00 65 1012.6
20260905144204 87 196 2.0 5.0 0.00 0.00 0.00 65 1012.7
20260905143704 86 198 2.0 5.0 0.00 0.00 0.00 66 1012.6